Regional Weather Roundup
Issued by NWS Green Bay, WI

Home | Current Version | Previous Version | Graphics & Text | Print | Product List | Glossary Off
Versions: 1 2 3 4 5 6 7 8 9 10 11 12 13 14 15 16 17 18 19 20 21 22 23 24 25 26 27 28 29 30 31 32 33 34 35 36 37 38 39 40 41 42 43 44 45 46 47 48 49 50

000
ASUS43 KGRB 211110
RWRGRB

NORTH-CENTRAL AND NORTHEAST WISCONSIN REGIONAL WEATHER ROUNDUP
NATIONAL WEATHER SERVICE GREEN BAY WI
600 AM CDT TUE APR 21 2015

WIZ005-009-010>012-018-019-211200-
NORTH CENTRAL WISCONSIN

CITY           SKY/WX    TMP DP  RH WIND       PRES   REMARKS
IRONWOOD       CLOUDY    30  30 100 W17       29.29R
MANITOWISH WTR LGT SNOW  30  30  99 W8G18     29.31R
ARBOR VITAE    LGT SNOW  32  29  90 W12G17    29.31S
EAGLE RIVER    LGT SNOW  32  30  94 W12       29.30R
LAND O LAKES   LGT SNOW  32  30  93 W6        29.29S
RHINELANDER    LGT SNOW  31  28  89 W13       29.33S FOG
PHILLIPS       FLURRIES  31  28  90 W3        29.35S
ANTIGO         LGT SNOW  32  30  93 W13       29.35S
TOMAHAWK       LGT SNOW  31  28  88 W6        29.36S
MERRILL        CLOUDY    33  30  89 W12       29.37R
$$

WIZ013-073-211200-
NORTHEAST WISCONSIN

CITY           SKY/WX    TMP DP  RH WIND       PRES   REMARKS
IRON MOUNTAIN  FLURRIES  34  29  82 SW10      29.29S
MARINETTE      CLOUDY    37  28  70 W9        29.36R
OCONTO         CLOUDY    36  32  85 W10       29.39R
$$

WIZ017-030-035>037-045-211200-
CENTRAL WISCONSIN

CITY           SKY/WX    TMP DP  RH WIND       PRES   REMARKS
MEDFORD        LGT SNOW  31  30  95 W10       29.39R
WAUSAU         CLOUDY    33  29  85 W17       29.38S
MOSINEE        CLOUDY    32  32 100 W16G22    29.41S
MARSHFIELD     LGT SNOW  33  30  88 W15       29.42S FOG
WISC RAPIDS    FLURRIES  34  29  82 W10       29.46R
STEVENS POINT  MIX PCPN  32  29  91 W10G17    29.43R
WAUPACA        CLOUDY    36  31  81 W17       29.43S
SHAWANO        MOCLDY    37  32  83 W8        29.40R
CLINTONVILLE   CLOUDY    36  30  80 W12       29.40S
$$

WIZ038-039-048-051-211200-
FOX VALLEY

CITY           SKY/WX    TMP DP  RH WIND       PRES   REMARKS
NWS GREEN BAY  CLOUDY    38  31  76 W14G22    29.41S
APPLETON       CLOUDY    36  28  75 W16       29.43R
OSHKOSH        CLOUDY    35  31  85 SW7G17    29.44S
FOND DU LAC    CLOUDY    35  31  85 W10G17    29.46S
$$

WIZ022-050-052-211200-
EAST CENTRAL WISCONSIN

CITY           SKY/WX    TMP DP  RH WIND       PRES   REMARKS
STURGEON BAY   CLOUDY    36  28  75 W15       29.40R
MANITOWOC      LGT RAIN  38  33  82 W10       29.43S
SHEBOYGAN      LGT SNOW  34  31  88 W12       29.46R FOG
$$

LMZ563-521-522-541>543-211200-
LAKESHORE

STATION/POSITION TIME  TEMP    WIND        PRES    VSBY  WAVE
                       AIR SEA DIR/SP/G                  HT/PER
                 (UTC) (F)     (DEG/KT/KT) (MB)    (MI)  (FT/S)
SHEBOYGAN LKSHOR 1100   36     260/ 13/ 15  998.4R
KEWAUNEE LKSHORE 1100   38     250/ 10/ 15  995.3R
NORTHPORT PIER   1100   38     220/  3/ 10  994.6S
SISTER BAY LKSHO 1000   39     240/ 16/ 18   N/A
CHAMBERS ISLAND  1100   37     210/  8/ 13  994.9R
MENOMINEE LKSHOR 1100   38     230/ 13/ 16  995.4R
$$



USA.gov is the U.S. government's official web portal to all federal, state and local government web resources and services.